DW8501 Madrid ES current weather conditions

sailwx.info

Wind from 063 at 1 knots gusting 4

Air temperature 17.2° C
Dewpoint 8.4° C

Last reported at 2016-Sep-29 07:55 UTC.
Time now 2016-Sep-29 08:31 UTC

Location: N 40°27' W 003°35'.
View on Google Maps.

See reports from other nearby stations

  
Tides and Currents Weather Stations Pressure Air Temp Water Temp Dewpoint Dewpoint Depression Visibility Wind Speed Wind Dir Waves Ship Positions
date/time (UTC)wind fromknots sea level pressurealtimeterstation pressurevisibilityair tempwater tempwave heightnotes
2016-Sep-29 07:55 063 1 gusting 4 17.2
2016-Sep-29 07:50 059 2 gusting 4 17.8
2016-Sep-29 07:45 093 1 gusting 3 18.9
2016-Sep-29 07:40 18.3
2016-Sep-29 07:35 101 0 gusting 2 17.2
2016-Sep-29 07:30 095 1 gusting 3 16.1
2016-Sep-29 07:25 106 1 gusting 4 16.1
2016-Sep-29 07:20 093 3 gusting 4 15.6
2016-Sep-29 07:15 069 3 gusting 3 15.6
2016-Sep-29 07:10 058 1 gusting 4 15.6
2016-Sep-29 07:05 069 2 gusting 4 15.6
2016-Sep-29 07:00 083 1 gusting 4 15.0
2016-Sep-29 06:55 075 2 gusting 4 14.4
2016-Sep-29 06:50 080 3 gusting 4 14.4
2016-Sep-29 06:45 089 1 gusting 3 14.4
2016-Sep-29 06:40 090 2 gusting 3 13.9
2016-Sep-29 06:35 096 2 gusting 3 13.9
2016-Sep-29 06:30 069 1 gusting 4 13.9
2016-Sep-29 06:25 052 2 gusting 4 13.9
2016-Sep-29 06:20 056 2 gusting 5 13.9
2016-Sep-29 06:15 067 2 gusting 5 13.3
2016-Sep-29 06:10 067 1 gusting 6 13.9
2016-Sep-29 06:05 060 3 gusting 6 13.9
2016-Sep-29 06:00 093 3 gusting 4 13.3
2016-Sep-29 05:55 112 0 gusting 2 13.3
2016-Sep-29 05:50 059 0 gusting 3 13.9
2016-Sep-29 05:45 046 1 gusting 3 13.9
2016-Sep-29 05:40 045 1 gusting 3 13.3
2016-Sep-29 05:35 044 1 gusting 3 13.3
2016-Sep-29 05:30 015 1 gusting 3 13.3
2016-Sep-29 05:25 344 1 gusting 3 13.3
2016-Sep-29 05:20 337 2 gusting 3 13.3
2016-Sep-29 05:15 329 0 gusting 3 13.3
2016-Sep-29 05:10 330 2 gusting 3 13.3
2016-Sep-29 05:05 337 2 gusting 3 13.3
2016-Sep-29 05:00 359 1 gusting 3 13.9
2016-Sep-29 04:55 024 1 gusting 4 13.9
2016-Sep-29 04:50 032 2 gusting 4 13.9
2016-Sep-29 04:45 027 2 gusting 3 13.9
2016-Sep-29 04:40 024 1 gusting 3 13.9
2016-Sep-29 04:35 014 1 gusting 3 13.9
2016-Sep-29 04:30 357 2 gusting 3 13.9
2016-Sep-29 04:25 329 1 gusting 2 13.9
2016-Sep-29 04:20 335 1 gusting 3 13.9
2016-Sep-29 04:15 014 1 gusting 3 13.9
2016-Sep-29 04:10 359 1 gusting 3 13.9
2016-Sep-29 04:05 355 0 gusting 2 13.9
2016-Sep-29 04:00 359 1 gusting 2 13.9
2016-Sep-29 03:55 006 1 gusting 2 13.9
2016-Sep-29 03:50 031 1 gusting 2 13.9
2016-Sep-29 03:45 13.9
2016-Sep-29 03:40 098 0 gusting 1 13.9
2016-Sep-29 03:35 108 0 gusting 1 13.9
2016-Sep-29 03:30 13.9
2016-Sep-29 03:25 232 0 gusting 2 13.9
2016-Sep-29 03:20 241 1 gusting 2 13.9
2016-Sep-29 03:15 14.4
2016-Sep-29 03:10 14.4
2016-Sep-29 03:05 14.4
2016-Sep-29 03:00 133 1 gusting 2 14.4
2016-Sep-29 02:55 136 1 gusting 2 14.4
2016-Sep-29 02:50 161 1 gusting 1 14.4
2016-Sep-29 02:45 155 1 gusting 1 14.4
2016-Sep-29 02:40 130 0 gusting 1 15.0
2016-Sep-29 02:35 126 0 gusting 1 15.0
2016-Sep-29 02:30 111 0 gusting 2 15.6
2016-Sep-29 02:25 098 0 gusting 2 15.6
2016-Sep-29 02:20 090 1 gusting 2 15.6
2016-Sep-29 02:15 15.6
2016-Sep-29 02:10 15.6
2016-Sep-29 02:05 065 0 gusting 1 15.6
2016-Sep-29 02:00 075 0 gusting 1 15.6
2016-Sep-29 01:55 15.6
2016-Sep-29 01:50 211 1 gusting 1 15.6
2016-Sep-29 01:45 16.1
2016-Sep-29 01:40 16.1
2016-Sep-29 01:35 16.1
2016-Sep-29 01:30 16.1
2016-Sep-29 01:25 16.1
2016-Sep-29 01:20 16.1
2016-Sep-29 01:15 16.7
2016-Sep-29 01:10 16.7
2016-Sep-29 01:05 16.7
2016-Sep-29 01:00 16.7
2016-Sep-29 00:55 212 1 gusting 1 16.7
2016-Sep-29 00:50 236 0 gusting 1 16.7
2016-Sep-29 00:45 342 1 gusting 1 16.7
2016-Sep-29 00:40 16.7
2016-Sep-29 00:35 16.7
2016-Sep-29 00:30 17.2
2016-Sep-29 00:25 243 1 gusting 1 17.2
2016-Sep-29 00:20 246 1 gusting 1 17.2
2016-Sep-29 00:15 238 0 gusting 1 17.2
2016-Sep-29 00:10 233 0 gusting 1 17.2
2016-Sep-29 00:05 232 0 gusting 1 17.2
2016-Sep-29 00:00 242 0 gusting 1 17.2
2016-Sep-28 23:55 214 1 gusting 1 17.2
2016-Sep-28 23:50 17.2
2016-Sep-28 23:45 17.2
2016-Sep-28 23:40 17.2
2016-Sep-28 23:35 17.2
2016-Sep-28 23:30 223 1 gusting 4 17.2
2016-Sep-28 23:25 234 1 gusting 4 17.2
2016-Sep-28 23:20 230 1 gusting 3 17.2
2016-Sep-28 23:15 227 1 gusting 3 17.2
2016-Sep-28 23:10 216 0 gusting 3 17.2
2016-Sep-28 23:05 209 1 gusting 3 17.2
2016-Sep-28 23:00 181 1 gusting 4 17.8
2016-Sep-28 22:55 179 0 gusting 4 17.8
2016-Sep-28 22:50 192 1 gusting 2 17.8
2016-Sep-28 22:45 176 1 gusting 3 18.3
2016-Sep-28 22:40 174 0 gusting 3 18.3
2016-Sep-28 22:35 174 2 gusting 3 18.3
2016-Sep-28 22:30 186 1 gusting 3 18.3
2016-Sep-28 22:25 189 1 gusting 3 18.3
2016-Sep-28 22:20 160 0 gusting 3 18.3
2016-Sep-28 22:15 166 1 gusting 4 18.3
2016-Sep-28 22:10 183 1 gusting 4 18.3
2016-Sep-28 22:05 167 1 gusting 4 18.9
2016-Sep-28 22:00 168 1 gusting 4 18.9
2016-Sep-28 21:55 187 1 gusting 4 18.9
2016-Sep-28 21:50 206 2 gusting 4 18.9
2016-Sep-28 21:45 197 1 gusting 4 19.4
2016-Sep-28 21:40 161 1 gusting 3 19.4
2016-Sep-28 21:35 161 1 gusting 4 19.4
2016-Sep-28 21:30 199 1 gusting 5 19.4
2016-Sep-28 21:25 206 3 gusting 6 20.0
2016-Sep-28 21:20 198 3 gusting 9 20.0
2016-Sep-28 21:15 198 3 gusting 9 20.0
2016-Sep-28 21:10 203 5 gusting 9 20.6
2016-Sep-28 21:05 204 3 gusting 9 20.6
2016-Sep-28 21:00 208 3 gusting 8 20.6
2016-Sep-28 20:55 210 3 gusting 7 20.6
2016-Sep-28 20:50 209 3 gusting 7 20.6
2016-Sep-28 20:45 213 5 gusting 7 20.6
2016-Sep-28 20:40 217 3 gusting 6 20.6
2016-Sep-28 20:35 211 4 gusting 9 21.1
2016-Sep-28 20:30 210 3 gusting 9 21.1
2016-Sep-28 20:25 223 6 gusting 9 21.1
2016-Sep-28 20:20 222 4 gusting 7 21.1
2016-Sep-28 20:15 218 5 gusting 7 21.1
2016-Sep-28 20:10 225 6 gusting 9 21.7
2016-Sep-28 20:05 229 6 gusting 9 21.7
2016-Sep-28 20:00 225 6 gusting 9 21.7
2016-Sep-28 19:55 220 4 gusting 8 21.7
2016-Sep-28 19:50 209 6 gusting 8 21.7
2016-Sep-28 19:45 208 5 gusting 8 21.7
2016-Sep-28 19:40 226 4 gusting 8 22.2
2016-Sep-28 19:35 220 6 gusting 9 22.2
2016-Sep-28 19:30 213 6 gusting 10 22.2
2016-Sep-28 19:25 217 6 gusting 10 22.8
2016-Sep-28 19:20 218 6 gusting 9 22.8
2016-Sep-28 19:15 224 3 gusting 6 22.8
2016-Sep-28 19:10 230 3 gusting 6 22.8
2016-Sep-28 19:05 225 3 gusting 6 22.8
2016-Sep-28 19:00 225 4 gusting 6 23.3
2016-Sep-28 18:55 225 4 gusting 6 23.3
2016-Sep-28 18:50 225 4 gusting 6 23.3
2016-Sep-28 18:45 225 4 gusting 6 23.3
2016-Sep-28 18:40 225 4 gusting 6 23.3
2016-Sep-28 18:35 225 3 gusting 6 23.3
2016-Sep-28 18:30 224 4 gusting 6 23.3
2016-Sep-28 18:25 226 4 gusting 6 23.3
2016-Sep-28 18:20 221 5 gusting 6 23.3
2016-Sep-28 18:15 162 4 gusting 6 23.9
2016-Sep-28 18:10 094 3 gusting 6 23.9
2016-Sep-28 18:05 137 5 gusting 6 24.4
2016-Sep-28 18:00 200 5 gusting 6 24.4
2016-Sep-28 17:55 187 2 gusting 6 25.0
2016-Sep-28 17:50 183 1 gusting 6 25.6
2016-Sep-28 17:45 160 2 gusting 5 26.1
2016-Sep-28 17:40 162 1 gusting 3 26.7
2016-Sep-28 17:35 174 2 gusting 5 26.7
2016-Sep-28 17:30 158 1 gusting 6 27.2
2016-Sep-28 17:25 160 2 gusting 6 27.8
2016-Sep-28 17:20 155 1 gusting 6 27.8
2016-Sep-28 17:15 136 1 gusting 3 28.3
2016-Sep-28 17:10 161 1 gusting 4 27.8
2016-Sep-28 17:05 192 1 gusting 6 27.2
2016-Sep-28 17:00 224 1 gusting 6 27.2
2016-Sep-28 16:55 189 5 gusting 6 27.8
2016-Sep-28 16:50 168 2 gusting 6 27.8
2016-Sep-28 16:45 236 1 gusting 6 27.2
2016-Sep-28 16:40 206 2 gusting 6 27.8
2016-Sep-28 16:35 203 0 gusting 6 27.8
2016-Sep-28 16:30 238 0 gusting 8 27.2
2016-Sep-28 16:25 223 1 gusting 8 26.1
2016-Sep-28 16:20 211 5 gusting 6 26.1
2016-Sep-28 16:15 164 6 gusting 9 26.1
2016-Sep-28 16:10 158 3 gusting 9 26.1
2016-Sep-28 16:05 182 5 gusting 9 26.7
2016-Sep-28 16:00 189 3 gusting 9 27.2
2016-Sep-28 15:55 221 2 gusting 9 27.2
2016-Sep-28 15:50 226 4 gusting 9 27.8
2016-Sep-28 15:45 193 4 gusting 6 29.4
2016-Sep-28 15:40 149 1 gusting 9 28.3
2016-Sep-28 15:35 157 3 gusting 9 27.8
2016-Sep-28 15:30 193 7 gusting 13 27.8
2016-Sep-28 15:25 229 1 gusting 13 26.7
2016-Sep-28 15:20 235 13 gusting 13 27.2
2016-Sep-28 15:15 159 3 gusting 6 27.2
2016-Sep-28 15:10 132 1 gusting 7 27.2
2016-Sep-28 15:05 150 4 gusting 7 27.2
2016-Sep-28 15:00 207 3 gusting 11 27.8
2016-Sep-28 14:55 243 2 gusting 11 26.7
2016-Sep-28 14:50 255 9 gusting 11 26.7
2016-Sep-28 14:45 233 4 gusting 10 27.2
2016-Sep-28 14:40 121 1 gusting 7 26.7
2016-Sep-28 14:35 114 3 gusting 8 26.1
2016-Sep-28 14:30 129 3 gusting 8 26.1
2016-Sep-28 14:25 142 5 gusting 8 26.1
2016-Sep-28 14:20 152 1 gusting 7 26.1
2016-Sep-28 14:15 149 2 gusting 7 26.1
2016-Sep-28 14:10 186 1 gusting 6 25.6
2016-Sep-28 14:05 185 4 gusting 8 26.1
2016-Sep-28 14:00 171 2 gusting 9 26.1
2016-Sep-28 13:55 183 5 gusting 9 27.2
2016-Sep-28 13:50 149 1 gusting 5 26.7
2016-Sep-28 13:45 125 2 gusting 8 26.1
2016-Sep-28 13:40 110 1 gusting 8 25.6
2016-Sep-28 13:35 160 6 gusting 8 26.7
2016-Sep-28 13:30 26.1
2016-Sep-28 13:25 142 4 gusting 9 26.1
2016-Sep-28 13:20 191 6 gusting 9 25.6
2016-Sep-28 13:15 208 4 gusting 6 25.6
2016-Sep-28 13:10 185 3 gusting 6 25.6
2016-Sep-28 13:05 208 3 gusting 5 25.6
2016-Sep-28 13:00 105 0 gusting 5 25.6
2016-Sep-28 12:55 163 1 gusting 7 25.0
2016-Sep-28 12:50 187 3 gusting 7 25.0
2016-Sep-28 12:45 115 1 gusting 12 25.6
2016-Sep-28 12:40 116 2 gusting 12 26.1
2016-Sep-28 12:35 085 1 gusting 6 26.1
2016-Sep-28 12:30 138 1 gusting 6 26.1
2016-Sep-28 12:25 162 0 gusting 6 25.0
2016-Sep-28 12:20 149 3 gusting 7 24.4
2016-Sep-28 12:15 172 1 gusting 8 24.4
2016-Sep-28 12:10 200 3 gusting 8 24.4
2016-Sep-28 12:05 171 6 gusting 13 25.0
2016-Sep-28 12:00 128 2 gusting 13 24.4
2016-Sep-28 11:55 098 2 gusting 7 24.4
2016-Sep-28 11:50 092 5 gusting 6 23.9
2016-Sep-28 11:45 160 4 gusting 9 24.4
2016-Sep-28 11:40 186 6 gusting 9 24.4
2016-Sep-28 11:35 151 1 gusting 6 24.4
2016-Sep-28 11:30 142 3 gusting 8 23.9
2016-Sep-28 11:25 131 6 gusting 8 23.9
2016-Sep-28 11:20 108 3 gusting 7 23.3
2016-Sep-28 11:15 112 3 gusting 7 23.3
2016-Sep-28 11:10 116 3 gusting 9 23.3
2016-Sep-28 11:05 114 1 gusting 9 22.8
2016-Sep-28 11:00 107 3 gusting 7 22.8
2016-Sep-28 10:55 089 3 gusting 13 23.3
2016-Sep-28 10:50 090 6 gusting 13 23.3
2016-Sep-28 10:45 092 6 gusting 13 23.3
2016-Sep-28 10:40 090 1 gusting 13 22.2
2016-Sep-28 10:35 090 10 gusting 13 22.8
2016-Sep-28 10:30 095 5 gusting 14 22.8
2016-Sep-28 10:25 102 6 gusting 14 22.8
2016-Sep-28 10:15 108 4 gusting 13 22.2
2016-Sep-28 10:10 106 6 gusting 13 22.8
2016-Sep-28 10:05 105 6 gusting 13 22.2
2016-Sep-28 09:55 090 7 gusting 13 21.7
2016-Sep-28 09:45 071 6 gusting 14 21.1
2016-Sep-28 09:35 086 12 gusting 14 21.7
2016-Sep-28 09:25 096 6 gusting 14 21.7
2016-Sep-28 09:20 093 9 gusting 16 21.1
2016-Sep-28 09:15 085 10 gusting 16 21.1
2016-Sep-28 09:10 090 6 gusting 19 20.6
2016-Sep-28 09:05 090 6 gusting 19 20.0
2016-Sep-28 09:00 092 13 gusting 19 20.6
2016-Sep-28 08:55 090 7 gusting 14 20.6
2016-Sep-28 08:50 082 6 gusting 14 20.0
2016-Sep-28 08:45 074 6 gusting 14 20.0
2016-Sep-28 08:40 069 9 gusting 14 20.0
2016-Sep-28 08:35 075 9 gusting 14 20.0
2016-Sep-28 08:30 086 9 gusting 14 20.0
2016-Sep-28 08:25 070 6 gusting 13 19.4
2016-Sep-28 08:20 054 9 gusting 13 19.4
2016-Sep-28 08:15 055 9 gusting 13 19.4
2016-Sep-28 08:10 066 8 gusting 13 18.9
2016-Sep-28 08:05 069 9 gusting 13 18.9
2016-Sep-28 08:00 059 9 gusting 13 18.9
2016-Sep-28 07:55 044 6 gusting 12 18.3
2016-Sep-28 07:50 048 7 gusting 11 18.3
2016-Sep-28 07:45 068 6 gusting 16 18.3
2016-Sep-28 07:40 067 6 gusting 16 17.8
2016-Sep-28 07:35 067 9 gusting 14 17.8
2016-Sep-28 07:30 074 9 gusting 13 17.8
2016-Sep-28 07:25 066 6 gusting 13 17.8
2016-Sep-28 07:20 064 9 gusting 11 17.8
2016-Sep-28 07:15 058 6 gusting 17 17.2
2016-Sep-28 07:10 055 6 gusting 17 17.2
2016-Sep-28 07:05 063 7 gusting 13 17.2
2016-Sep-28 07:00 063 6 gusting 8 17.2
2016-Sep-28 06:55 053 3 gusting 8 17.2
2016-Sep-28 06:50 045 6 gusting 7 17.2
2016-Sep-28 06:45 056 3 gusting 7 16.7
2016-Sep-28 06:40 053 3 gusting 9 16.7
2016-Sep-28 06:35 050 6 gusting 9 16.7
2016-Sep-28 06:30 055 6 gusting 12 16.7
2016-Sep-28 06:25 054 6 gusting 12 16.1
2016-Sep-28 06:20 053 5 gusting 12 16.1
2016-Sep-28 06:15 072 3 gusting 12 16.1
2016-Sep-28 06:10 091 6 gusting 12 16.1
2016-Sep-28 06:05 085 8 gusting 12 16.1
2016-Sep-28 06:00 070 8 gusting 12 16.1
2016-Sep-28 05:55 069 3 gusting 12 16.1
2016-Sep-28 05:50 078 3 gusting 13 16.1
2016-Sep-28 05:45 075 2 gusting 14 16.7
2016-Sep-28 05:40 058 5 gusting 14 16.7
2016-Sep-28 05:35 055 9 gusting 13 16.7
2016-Sep-28 05:30 056 9 gusting 13 16.7
2016-Sep-28 05:25 049 4 gusting 10 16.7
2016-Sep-28 05:20 059 3 gusting 7 16.7
2016-Sep-28 05:15 064 3 gusting 7 16.7
2016-Sep-28 05:10 054 4 gusting 11 16.7
2016-Sep-28 05:05 048 6 gusting 11 16.7
2016-Sep-28 05:00 046 4 gusting 9 16.7
2016-Sep-28 04:55 040 6 gusting 8 16.7
2016-Sep-28 04:50 045 3 gusting 8 17.2
2016-Sep-28 04:45 053 6 gusting 8 17.2
2016-Sep-28 04:40 055 5 gusting 6 17.2
2016-Sep-28 04:35 045 6 gusting 6 17.2
2016-Sep-28 04:30 051 3 gusting 6 17.2
2016-Sep-28 04:25 058 3 gusting 7 17.2
2016-Sep-28 04:20 041 3 gusting 8 17.2
2016-Sep-28 04:15 051 3 gusting 8 17.2
2016-Sep-28 04:10 116 5 gusting 8 17.2
2016-Sep-28 04:05 111 6 gusting 10 17.2
2016-Sep-28 04:00 066 6 gusting 11 17.2
2016-Sep-28 03:55 052 9 gusting 11 17.8
2016-Sep-28 03:50 063 6 gusting 9 17.8
2016-Sep-28 03:45 069 5 gusting 9 17.8
2016-Sep-28 03:40 066 5 gusting 10 17.8
2016-Sep-28 03:35 070 6 gusting 10 17.8
2016-Sep-28 03:30 074 6 gusting 10 17.8
2016-Sep-28 03:25 065 6 gusting 12 17.8
2016-Sep-28 03:20 054 6 gusting 12 17.8
2016-Sep-28 03:15 060 7 gusting 9 17.8
2016-Sep-28 03:10 060 6 gusting 9 17.8
2016-Sep-28 03:05 052 6 gusting 8 17.8
2016-Sep-28 03:00 067 5 gusting 9 17.8
2016-Sep-28 02:55 083 5 gusting 9 17.8
2016-Sep-28 02:50 086 5 gusting 9 17.8
2016-Sep-28 02:45 079 2 gusting 8 18.3
2016-Sep-28 02:40 077 3 gusting 9 18.3
2016-Sep-28 02:35 083 5 gusting 10 18.3
2016-Sep-28 02:30 081 6 gusting 10 18.3
2016-Sep-28 02:25 077 1 gusting 8 17.8
2016-Sep-28 02:20 094 5 gusting 7 17.8
2016-Sep-28 02:15 076 4 gusting 7 18.3
2016-Sep-28 02:10 020 5 gusting 8 18.3
2016-Sep-28 02:05 021 6 gusting 9 17.8
2016-Sep-28 02:00 061 6 gusting 9 17.8
2016-Sep-28 01:55 094 3 gusting 7 17.8
2016-Sep-28 01:50 097 6 gusting 8 18.3
2016-Sep-28 01:45 087 5 gusting 12 18.3
2016-Sep-28 01:40 072 6 gusting 12 18.3
2016-Sep-28 01:35 073 9 gusting 12 18.3
2016-Sep-28 01:30 071 6 gusting 9 18.3
2016-Sep-28 01:25 071 6 gusting 8 18.3
2016-Sep-28 01:20 074 5 gusting 8 18.3
2016-Sep-28 01:15 063 5 gusting 8 18.3
2016-Sep-28 01:10 063 5 gusting 8 18.3
2016-Sep-28 01:05 065 6 gusting 7 18.3
2016-Sep-28 01:00 064 3 gusting 6 18.3
2016-Sep-28 00:55 081 4 gusting 6 18.3
2016-Sep-28 00:50 093 3 gusting 6 18.3
2016-Sep-28 00:45 086 3 gusting 6 18.3
2016-Sep-28 00:40 087 3 gusting 6 18.3
2016-Sep-28 00:35 085 3 gusting 6 18.3
2016-Sep-28 00:30 076 2 gusting 6 18.3
2016-Sep-28 00:25 084 4 gusting 8 18.9
2016-Sep-28 00:20 081 3 gusting 9 18.9
2016-Sep-28 00:15 074 6 gusting 11 18.9
2016-Sep-28 00:10 084 6 gusting 11 18.9
2016-Sep-28 00:05 088 6 gusting 10 18.9
2016-Sep-28 00:00 085 6 gusting 11 18.9
2016-Sep-27 23:55 080 6 gusting 11 19.4
2016-Sep-27 23:50 086 6 gusting 12 19.4
2016-Sep-27 23:45 091 6 gusting 12 19.4
2016-Sep-27 23:40 097 5 gusting 10 19.4
2016-Sep-27 23:35 081 6 gusting 13 19.4
2016-Sep-27 23:30 064 6 gusting 13 19.4
2016-Sep-27 23:25 067 5 gusting 12 19.4
2016-Sep-27 23:20 067 4 gusting 12 19.4
2016-Sep-27 23:15 097 6 gusting 10 20.0
2016-Sep-27 23:10 105 6 gusting 13 20.0
2016-Sep-27 23:05 079 7 gusting 13 20.0
2016-Sep-27 23:00 074 9 gusting 14 20.0
2016-Sep-27 22:55 081 11 gusting 14 20.0
2016-Sep-27 22:50 090 9 gusting 15 20.0
2016-Sep-27 22:45 083 10 gusting 15 20.0
2016-Sep-27 22:40 073 6 gusting 12 20.0
2016-Sep-27 22:35 087 6 gusting 12 20.0
2016-Sep-27 22:30 088 3 gusting 13 20.0
2016-Sep-27 22:25 082 9 gusting 13 20.6
2016-Sep-27 22:20 091 6 gusting 13 20.6
2016-Sep-27 22:15 095 6 gusting 13 20.6
2016-Sep-27 22:10 077 7 gusting 12 20.6
2016-Sep-27 22:05 082 9 gusting 12 20.6
2016-Sep-27 22:00 094 9 gusting 13 20.6
2016-Sep-27 21:55 090 7 gusting 13 21.1
2016-Sep-27 21:50 074 6 gusting 15 21.1
2016-Sep-27 21:45 070 10 gusting 18 21.1
2016-Sep-27 21:40 084 8 gusting 18 21.1
2016-Sep-27 21:35 074 12 gusting 18 21.1
2016-Sep-27 21:30 077 11 gusting 17 21.7
2016-Sep-27 21:25 087 13 gusting 17 21.7
2016-Sep-27 21:20 097 13 gusting 18 21.7
2016-Sep-27 21:15 097 9 gusting 18 21.7
2016-Sep-27 21:10 080 11 gusting 16 22.2
2016-Sep-27 21:05 090 6 gusting 19 22.2
2016-Sep-27 21:00 090 9 gusting 19 22.2
2016-Sep-27 20:55 061 3 gusting 19 22.2
2016-Sep-27 20:50 073 8 gusting 23 22.8
2016-Sep-27 20:45 097 13 gusting 23 22.8
2016-Sep-27 20:40 074 11 gusting 19 22.8
2016-Sep-27 20:35 073 12 gusting 19 22.8
2016-Sep-27 20:30 080 7 gusting 17 23.3
2016-Sep-27 20:25 064 8 gusting 17 23.3
2016-Sep-27 20:20 053 11 gusting 13 23.3
2016-Sep-27 20:15 040 8 gusting 13 23.3
2016-Sep-27 20:10 021 10 gusting 13 23.3
2016-Sep-27 20:05 026 7 gusting 14 23.3
2016-Sep-27 20:00 047 7 gusting 17 23.3
2016-Sep-27 19:55 048 13 gusting 17 23.3
2016-Sep-27 19:50 049 13 gusting 17 23.3
2016-Sep-27 19:45 046 11 gusting 18 23.3
2016-Sep-27 19:40 043 11 gusting 18 23.3
2016-Sep-27 19:35 049 13 gusting 18 23.9
2016-Sep-27 19:30 056 10 gusting 18 23.9
2016-Sep-27 19:25 055 12 gusting 17 23.9
2016-Sep-27 19:20 047 10 gusting 19 23.9
2016-Sep-27 19:15 049 11 gusting 19 23.9
2016-Sep-27 19:10 049 9 gusting 19 24.4
2016-Sep-27 19:05 045 14 gusting 19 24.4
2016-Sep-27 19:00 045 10 gusting 17 25.0
2016-Sep-27 18:55 043 10 gusting 17 25.0
2016-Sep-27 18:50 044 12 gusting 15 25.6
2016-Sep-27 18:45 051 13 gusting 19 25.6
2016-Sep-27 18:40 057 13 gusting 19 25.6
2016-Sep-27 18:35 061 10 gusting 16 26.1
2016-Sep-27 18:30 070 13 gusting 14 26.1
2016-Sep-27 18:25 084 7 gusting 15 26.7
2016-Sep-27 18:20 084 6 gusting 16 26.7
2016-Sep-27 18:15 071 9 gusting 16 26.7
2016-Sep-27 18:10 089 9 gusting 13 27.2
2016-Sep-27 18:05 132 3 gusting 6 27.8
2016-Sep-27 18:00 089 3 gusting 6 27.8
2016-Sep-27 17:55 090 2 gusting 6 27.8
2016-Sep-27 17:50 085 1 gusting 5 28.3
2016-Sep-27 17:45 063 3 gusting 5 28.3
2016-Sep-27 17:40 053 1 gusting 6 28.3
2016-Sep-27 17:35 065 1 gusting 6 28.3
2016-Sep-27 17:30 079 1 gusting 5 28.9
2016-Sep-27 17:25 094 3 gusting 5 29.4
2016-Sep-27 17:20 092 0 gusting 6 28.9
2016-Sep-27 17:15 089 3 gusting 6 28.3
2016-Sep-27 17:10 097 4 gusting 6 28.9
2016-Sep-27 17:05 101 3 gusting 6 29.4
2016-Sep-27 17:00 094 2 gusting 6 28.9
2016-Sep-27 16:55 053 5 gusting 7 29.4
2016-Sep-27 16:50 043 1 gusting 8 28.3
2016-Sep-27 16:45 057 5 gusting 8 28.9
2016-Sep-27 16:40 059 5 gusting 6 30.0
2016-Sep-27 16:35 288 1 gusting 2 30.0
2016-Sep-27 16:30 348 1 gusting 4 30.0
2016-Sep-27 16:25 030 0 gusting 6 28.3
2016-Sep-27 16:20 047 1 gusting 6 28.3
2016-Sep-27 16:15 051 3 gusting 9 28.3
2016-Sep-27 16:10 051 4 gusting 9 28.9
2016-Sep-27 16:05 040 6 gusting 6 29.4
2016-Sep-27 16:00 039 3 gusting 6 29.4
2016-Sep-27 15:55 073 1 gusting 6 30.0
2016-Sep-27 15:50 125 1 gusting 5 30.6
2016-Sep-27 15:45 123 1 gusting 3 30.0
2016-Sep-27 15:40 068 1 gusting 7 29.4
2016-Sep-27 15:35 077 3 gusting 9 28.9
2016-Sep-27 15:30 106 4 gusting 9 28.9
2016-Sep-27 15:25 093 3 gusting 13 28.3
2016-Sep-27 15:20 076 7 gusting 13 28.3
2016-Sep-27 15:15 084 3 gusting 13 28.3
2016-Sep-27 15:10 103 9 gusting 13 29.4
2016-Sep-27 15:05 105 3 gusting 9 29.4
2016-Sep-27 15:00 078 1 gusting 9 28.3
2016-Sep-27 14:55 065 6 gusting 12 28.3
2016-Sep-27 14:50 076 6 gusting 12 28.3
2016-Sep-27 14:45 075 4 gusting 10 28.3
2016-Sep-27 14:40 068 3 gusting 10 27.8
2016-Sep-27 14:35 023 3 gusting 15 27.8
2016-Sep-27 14:30 018 6 gusting 15 27.8
2016-Sep-27 14:25 014 3 gusting 11 28.9
2016-Sep-27 14:20 337 5 gusting 6 28.9
2016-Sep-27 14:15 323 3 gusting 6 28.3
2016-Sep-27 14:10 278 2 gusting 6 28.3
2016-Sep-27 14:05 300 4 gusting 6 28.9
2016-Sep-27 14:00 355 1 gusting 6 28.3
2016-Sep-27 13:55 079 1 gusting 8 28.9
2016-Sep-27 13:50 084 1 gusting 16 27.8
2016-Sep-27 13:45 080 6 gusting 16 28.3
2016-Sep-27 13:40 086 6 gusting 10 29.4
2016-Sep-27 13:35 095 0 gusting 6 28.3
2016-Sep-27 13:30 086 2 gusting 10 27.8
2016-Sep-27 13:25 068 4 gusting 10 27.2
2016-Sep-27 13:20 061 3 gusting 10 27.2
2016-Sep-27 13:15 061 6 gusting 9 27.2
2016-Sep-27 13:10 101 3 gusting 9 27.2
2016-Sep-27 13:05 109 4 gusting 10 26.7
2016-Sep-27 13:00 099 6 gusting 12 26.7
2016-Sep-27 12:55 108 8 gusting 12 27.2
2016-Sep-27 12:50 123 5 gusting 8 27.2
2016-Sep-27 12:45 104 3 gusting 13 27.2
2016-Sep-27 12:40 081 1 gusting 13 26.7
2016-Sep-27 12:35 043 6 gusting 12 26.7
2016-Sep-27 12:30 037 2 gusting 13 26.1
2016-Sep-27 12:25 055 11 gusting 13 26.1
2016-Sep-27 12:20 059 7 gusting 12 26.1
2016-Sep-27 12:15 045 7 gusting 14 25.6
2016-Sep-27 12:10 050 9 gusting 14 25.6
2016-Sep-27 12:05 062 9 gusting 9 26.7
2016-Sep-27 12:00 103 5 gusting 6 27.2
2016-Sep-27 11:55 26.7
2016-Sep-27 11:50 058 2 gusting 10 25.6
2016-Sep-27 11:45 046 3 gusting 12 25.0
2016-Sep-27 11:40 049 4 gusting 13 25.6
2016-Sep-27 11:35 060 1 gusting 13 25.6
2016-Sep-27 11:30 051 3 gusting 8 25.6
2016-Sep-27 11:25 058 4 gusting 13 25.0
2016-Sep-27 11:20 087 3 gusting 13 25.6
2016-Sep-27 11:15 142 6 gusting 10 26.1
2016-Sep-27 11:10 123 1 gusting 7 25.0
2016-Sep-27 11:05 100 6 gusting 9 25.6
2016-Sep-27 11:00 086 2 gusting 9 25.0
2016-Sep-27 10:55 090 4 gusting 8 25.0
2016-Sep-27 10:50 075 4 gusting 11 24.4
2016-Sep-27 10:45 083 5 gusting 11 24.4
2016-Sep-27 10:40 097 8 gusting 11 24.4
2016-Sep-27 10:35 133 9 gusting 9 25.0
2016-Sep-27 10:30 144 5 gusting 10 25.0
2016-Sep-27 10:25 115 1 gusting 10 23.9
2016-Sep-27 10:20 111 4 gusting 10 23.9
2016-Sep-27 10:15 105 7 gusting 10 23.9
2016-Sep-27 10:10 106 6 gusting 9 23.9
2016-Sep-27 10:05 104 1 gusting 9 23.3
2016-Sep-27 10:00 098 6 gusting 9 23.3
2016-Sep-27 09:55 088 6 gusting 9 23.3
2016-Sep-27 09:50 058 6 gusting 9 23.9
2016-Sep-27 09:45 066 6 gusting 9 23.3
2016-Sep-27 09:40 087 2 gusting 9 22.8
2016-Sep-27 09:35 104 4 gusting 10 22.8
2016-Sep-27 09:30 103 5 gusting 10 22.2
2016-Sep-27 09:25 084 6 gusting 9 22.2
2016-Sep-27 09:20 067 4 gusting 9 21.7
2016-Sep-27 09:15 062 6 gusting 9 21.7
2016-Sep-27 09:10 073 4 gusting 9 21.1
2016-Sep-27 09:05 078 5 gusting 9 21.1
2016-Sep-27 09:00 076 6 gusting 9 20.6
2016-Sep-27 08:55 064 6 gusting 10 20.6
2016-Sep-27 08:50 053 6 gusting 10 20.6
2016-Sep-27 08:45 048 4 gusting 8 20.0
2016-Sep-27 08:40 047 5 gusting 8 20.0
2016-Sep-27 08:35 047 5 gusting 8 20.0
2016-Sep-27 08:30 051 6 gusting 8 20.0
2016-Sep-27 08:25 052 6 gusting 8 19.4
2016-Sep-27 08:20 052 6 gusting 7 18.9
2016-Sep-27 08:15 051 5 gusting 8 18.9
2016-Sep-27 08:10 041 6 gusting 8 18.9
2016-Sep-27 08:05 043 6 gusting 6 18.3
2016-Sep-27 08:00 047 4 gusting 7 17.8